,,,PA_Meas_PMT16A,,PR_Meas_QMR101_102,,RH_Meas_QMH101,,SR_Meas_QMS101,,TA_Meas_QMH101,,GenWind,,GenWind,
date,time,status,PA,status,PR,status,RH,status,SR,status,TA,status,DirAvg,status,SpdAvg,
2009-03-16, 00:00:04,VALID,1000.75,VALID,0,VALID,93.8214,VALID,0,VALID,23.6054,VALID,114,VALID,0.341406,
2009-03-16, 00:01:04,VALID,1000.72,VALID,0,VALID,93.7985,VALID,0,VALID,23.625,VALID,115,VALID,0.221094,
2009-03-16, 00:02:04,VALID,1000.74,VALID,0,VALID,93.7757,VALID,0,VALID,23.625,VALID,117,VALID,0.318359,
2009-03-16, 00:03:04,VALID,1000.68,VALID,0,VALID,93.8062,VALID,0,VALID,23.6445,VALID,117,VALID,0.251953,
2009-03-16, 00:04:04,VALID,1000.66,VALID,0,VALID,93.7833,VALID,0,VALID,23.6427,VALID,117,VALID,0.0605469,
2009-03-16, 00:05:04,VALID,1000.65,VALID,0,VALID,93.7451,VALID,0.112286,VALID,23.6232,VALID,117,VALID,0.170703,
2009-03-16, 00:06:04,VALID,1000.62,VALID,0,VALID,93.7528,VALID,0,VALID,23.6232,VALID,117,VALID,0.142188,
2009-03-16, 00:07:04,VALID,1000.61,VALID,0,VALID,93.7223,VALID,0,VALID,23.6232,VALID,117,VALID,0.0765625,
2009-03-16, 00:08:04,VALID,1000.61,VALID,0,VALID,93.8291,VALID,0,VALID,23.6445,VALID,149,VALID,0.828125,
2009-03-16, 00:09:04,VALID,1000.58,VALID,0,VALID,93.8596,VALID,0,VALID,23.6427,VALID,135,VALID,1.02266,
2009-03-16, 00:10:04,VALID,1000.58,VALID,0,VALID,93.7375,VALID,0,VALID,23.664,VALID,132,VALID,1.25117,
2009-03-16, 00:11:04,VALID,1000.59,VALID,0,VALID,93.646,VALID,0,VALID,23.6622,VALID,139,VALID,1.0707,
2009-03-16, 00:12:04,VALID,1000.58,VALID,0,VALID,93.5849,VALID,0,VALID,23.6835,VALID,150,VALID,0.848047,
2009-03-16, 00:13:04,VALID,1000.6,VALID,0,VALID,93.5697,VALID,0,VALID,23.664,VALID,151,VALID,0.633984,
2009-03-16, 00:14:04,VALID,1000.57,VALID,0,VALID,93.5239,VALID,0,VALID,23.664,VALID,146,VALID,0.444922,
2009-03-16, 00:15:04,VALID,1000.61,VALID,0,VALID,93.562,VALID,0,VALID,23.664,VALID,146,VALID,0.392188,
2009-03-16, 00:16:04,VALID,1000.61,VALID,0,VALID,93.5697,VALID,0,VALID,23.664,VALID,146,VALID,0.377734,
2009-03-16, 00:17:04,VALID,1000.64,VALID,0,VALID,93.5849,VALID,0,VALID,23.6622,VALID,145,VALID,0.358203,
2009-03-16, 00:18:04,VALID,1000.62,VALID,0,VALID,93.562,VALID,0,VALID,23.664,VALID,114,VALID,0.601563,
2009-03-16, 00:19:04,VALID,1000.63,VALID,0,VALID,93.501,VALID,0,VALID,23.664,VALID,91,VALID,0.717578,
2009-03-16, 00:20:04,VALID,1000.64,VALID,0,VALID,93.4857,VALID,0,VALID,23.664,VALID,88,VALID,0.914453,
2009-03-16, 00:21:04,VALID,1000.62,VALID,0,VALID,93.3408,VALID,0,VALID,23.6835,VALID,75,VALID,0.977734,
2009-03-16, 00:22:04,VALID,1000.68,VALID,0,VALID,93.15,VALID,0,VALID,23.664,VALID,39,VALID,0.948438,
2009-03-16, 00:23:04,VALID,1000.66,VALID,0,VALID,93.2263,VALID,0,VALID,23.6445,VALID,51,VALID,1.10469,
2009-03-16, 00:24:04,VALID,1000.69,VALID,0,VALID,93.3789,VALID,0,VALID,23.625,VALID,61,VALID,0.784766,
2009-03-16, 00:25:04,VALID,1000.69,VALID,0,VALID,93.3637,VALID,0,VALID,23.6232,VALID,51,VALID,0.620313,
2009-03-16, 00:26:04,VALID,1000.72,VALID,0,VALID,93.44,VALID,0,VALID,23.6054,VALID,45,VALID,0.692578,
2009-03-16, 00:27:04,VALID,1000.7,VALID,0,VALID,93.5315,VALID,0,VALID,23.5841,VALID,43,VALID,0.603125,
2009-03-16, 00:28:04,VALID,1000.7,VALID,0,VALID,93.5468,VALID,0,VALID,23.5859,VALID,43,VALID,0.441797,
2009-03-16, 00:29:04,VALID,1000.7,VALID,0,VALID,93.6002,VALID,0,VALID,23.5646,VALID,43,VALID,0.484766,
2009-03-16, 00:30:04,VALID,1000.69,VALID,0,VALID,93.6612,VALID,0,VALID,23.5469,VALID,43,VALID,0.574219,
2009-03-16, 00:31:04,VALID,1000.68,VALID,0,VALID,93.7223,VALID,0,VALID,23.5469,VALID,43,VALID,0.667969,
2009-03-16, 00:32:04,VALID,1000.64,VALID,0,VALID,93.6765,VALID,0,VALID,23.5274,VALID,43,VALID,0.569531,
2009-03-16, 00:33:04,VALID,1000.67,VALID,0,VALID,93.6841,VALID,0,VALID,23.5079,VALID,39,VALID,0.625391,
2009-03-16, 00:34:04,VALID,1000.68,VALID,0,VALID,93.6765,VALID,0,VALID,23.4884,VALID,20,VALID,0.768359,
2009-03-16, 00:35:04,VALID,1000.65,VALID,0,VALID,93.7299,VALID,0,VALID,23.4688,VALID,16,VALID,0.813281,
2009-03-16, 00:36:04,VALID,1000.66,VALID,0,VALID,93.8367,VALID,0,VALID,23.4493,VALID,26,VALID,0.816016,
2009-03-16, 00:37:04,VALID,1000.65,VALID,0,VALID,93.9054,VALID,0,VALID,23.4493,VALID,41,VALID,0.346875,
2009-03-16, 00:38:04,VALID,1000.71,VALID,0,VALID,93.9511,VALID,0,VALID,23.428,VALID,321,VALID,0.638281,
2009-03-16, 00:39:04,VALID,1000.72,VALID,0,VALID,94.1266,VALID,0,VALID,23.4688,VALID,302,VALID,1.05508,
2009-03-16, 00:40:04,VALID,1000.82,VALID,0,VALID,94.3479,VALID,0,VALID,23.5469,VALID,294,VALID,2.5125,
2009-03-16, 00:41:04,VALID,1000.82,VALID,0,VALID,94.2105,VALID,0,VALID,23.5256,VALID,310,VALID,1.59883,
2009-03-16, 00:42:04,VALID,1000.9,VALID,0,VALID,94.1114,VALID,0,VALID,23.6054,VALID,279,VALID,1.25664,
2009-03-16, 00:43:04,VALID,1000.92,VALID,0,VALID,93.8367,VALID,0,VALID,23.703,VALID,224,VALID,3.00664,
2009-03-16, 00:44:04,VALID,1000.91,VALID,0,VALID,93.562,VALID,0,VALID,23.7811,VALID,230,VALID,1.78437,
2009-03-16, 00:45:04,VALID,1000.91,VALID,0,VALID,93.1882,VALID,0,VALID,23.8201,VALID,253,VALID,2.10781,
2009-03-16, 00:46:04,VALID,1000.89,VALID,0,VALID,92.8525,VALID,0,VALID,23.8591,VALID,268,VALID,1.60352,
2009-03-16, 00:47:04,VALID,1000.87,VALID,0,VALID,92.677,VALID,0,VALID,23.9177,VALID,240,VALID,1.11758,
2009-03-16, 00:48:04,VALID,1000.88,VALID,0,VALID,92.3489,VALID,0,VALID,23.9159,VALID,252,VALID,2.06328,
2009-03-16, 00:49:04,VALID,1000.87,VALID,0,VALID,92.0819,VALID,0,VALID,23.9957,VALID,246,VALID,1.66641,
2009-03-16, 00:50:04,VALID,1000.87,VALID,0,VALID,91.8683,VALID,0,VALID,24.0134,VALID,246,VALID,1.98086,
2009-03-16, 00:51:04,VALID,1000.86,VALID,0,VALID,91.7538,VALID,0,VALID,24.0543,VALID,270,VALID,1.68008,
2009-03-16, 00:52:04,VALID,1000.74,VALID,0,VALID,91.441,VALID,0,VALID,24.0329,VALID,216,VALID,2.36055,
2009-03-16, 00:53:04,VALID,1000.72,VALID,0,VALID,90.8154,VALID,0,VALID,24.072,VALID,245,VALID,4.33672,
2009-03-16, 00:54:04,VALID,1000.73,VALID,0,VALID,90.6094,VALID,0,VALID,24.1519,VALID,246,VALID,2.7207,
2009-03-16, 00:55:04,VALID,1000.71,VALID,0,VALID,90.4644,VALID,0,VALID,24.1714,VALID,233,VALID,2.77266,
2009-03-16, 00:56:04,VALID,1000.71,VALID,0,VALID,90.3271,VALID,0,VALID,24.15,VALID,224,VALID,1.29023,
2009-03-16, 00:57:04,VALID,1000.7,VALID,0,VALID,90.411,VALID,0,VALID,24.1714,VALID,258,VALID,0.930859,
2009-03-16, 00:58:04,VALID,1000.68,VALID,0,VALID,90.3118,VALID,0,VALID,24.1305,VALID,241,VALID,0.839844,
2009-03-16, 00:59:04,VALID,1000.69,VALID,0,VALID,90.2203,VALID,0,VALID,24.1519,VALID,254,VALID,1.7207,
2009-03-16, 01:00:04,VALID,1000.65,VALID,0,VALID,90.1668,VALID,0,VALID,24.1324,VALID,199,VALID,1.70117,
2009-03-16, 01:01:04,VALID,1000.65,VALID,0,VALID,90.2279,VALID,0,VALID,24.1324,VALID,258,VALID,1.20117,
2009-03-16, 01:02:04,VALID,1000.65,VALID,0,VALID,90.0371,VALID,0,VALID,24.1324,VALID,266,VALID,1.3707,
2009-03-16, 01:03:04,VALID,1000.61,VALID,0,VALID,89.8617,VALID,0,VALID,24.1324,VALID,212,VALID,1.91836,
2009-03-16, 01:04:04,VALID,1000.61,VALID,0,VALID,89.999,VALID,0,VALID,24.1324,VALID,247,VALID,1.21016,
2009-03-16, 01:05:04,VALID,1000.62,VALID,0,VALID,89.6633,VALID,0,VALID,24.1324,VALID,238,VALID,2.64961,
2009-03-16, 01:06:04,VALID,1000.62,VALID,0,VALID,89.7625,VALID,0,VALID,24.1324,VALID,244,VALID,1.57031,
2009-03-16, 01:07:04,VALID,1000.63,VALID,0,VALID,89.7014,VALID,0,VALID,24.1324,VALID,245,VALID,1.02109,
2009-03-16, 01:08:04,VALID,1000.59,VALID,0,VALID,89.7396,VALID,0,VALID,24.1324,VALID,262,VALID,0.617188,
2009-03-16, 01:09:04,VALID,1000.59,VALID,0,VALID,89.8159,VALID,0,VALID,24.072,VALID,256,VALID,0.257031,
2009-03-16, 01:10:04,VALID,1000.6,VALID,0,VALID,89.8922,VALID,0,VALID,24.072,VALID,230,VALID,0.689844,
2009-03-16, 01:11:04,VALID,1000.6,VALID,0,VALID,89.8693,VALID,0,VALID,24.0738,VALID,248,VALID,0.840234,
2009-03-16, 01:12:04,VALID,1000.61,VALID,0,VALID,89.9303,VALID,0,VALID,24.0543,VALID,222,VALID,0.634375,
2009-03-16, 01:13:04,VALID,1000.63,VALID,0,VALID,90.0677,VALID,0,VALID,24.0543,VALID,209,VALID,0.821875,
2009-03-16, 01:14:04,VALID,1000.63,VALID,0,VALID,90.1974,VALID,0,VALID,24.0329,VALID,180,VALID,0.289844,
2009-03-16, 01:15:04,VALID,1000.6,VALID,0,VALID,90.205,VALID,0,VALID,23.9957,VALID,295,VALID,0.704297,
2009-03-16, 01:16:04,VALID,1000.56,VALID,0,VALID,90.144,VALID,0,VALID,23.9744,VALID,348,VALID,0.838672,
2009-03-16, 01:17:04,VALID,1000.56,VALID,0,VALID,89.793,VALID,0,VALID,23.9939,VALID,263,VALID,1.23906,
2009-03-16, 01:18:04,VALID,1000.58,VALID,0,VALID,89.6328,VALID,0,VALID,24.0134,VALID,246,VALID,0.319141,
2009-03-16, 01:19:04,VALID,1000.54,VALID,0,VALID,89.5183,VALID,0,VALID,24.0134,VALID,294,VALID,0.735937,
2009-03-16, 01:20:04,VALID,1000.53,VALID,0,VALID,89.3963,VALID,0,VALID,24.0329,VALID,234,VALID,0.719922,
2009-03-16, 01:21:04,VALID,1000.49,VALID,0,VALID,89.3352,VALID,0,VALID,24.0134,VALID,14,VALID,0.652734,
2009-03-16, 01:22:04,VALID,1000.52,VALID,0,VALID,89.4039,VALID,0,VALID,24.0134,VALID,348,VALID,0.279297,
2009-03-16, 01:23:04,VALID,1000.52,VALID,0,VALID,89.4954,VALID,0,VALID,24.0348,VALID,360,VALID,0.668359,
2009-03-16, 01:24:04,VALID,1000.53,VALID,0,VALID,89.4497,VALID,0,VALID,24.0348,VALID,341,VALID,0.257031,
2009-03-16, 01:25:04,VALID,1000.57,VALID,0,VALID,89.4115,VALID,0,VALID,23.9939,VALID,338,VALID,0.942969,
2009-03-16, 01:26:04,VALID,1000.51,VALID,0,VALID,89.4344,VALID,0,VALID,23.9939,VALID,358,VALID,1.02266,
2009-03-16, 01:27:04,VALID,1000.52,VALID,0,VALID,89.4802,VALID,0,VALID,24.0153,VALID,18,VALID,1.02578,
2009-03-16, 01:28:04,VALID,1000.48,VALID,0,VALID,89.5336,VALID,0,VALID,23.9939,VALID,1,VALID,0.715234,
2009-03-16, 01:29:04,VALID,1000.47,VALID,0,VALID,89.6175,VALID,0,VALID,24.0153,VALID,1,VALID,0.51875,
2009-03-16, 01:30:04,VALID,1000.45,VALID,0,VALID,89.6328,VALID,0,VALID,23.9957,VALID,353,VALID,0.639844,
2009-03-16, 01:31:04,VALID,1000.4,VALID,0,VALID,89.6023,VALID,0,VALID,23.9957,VALID,353,VALID,0.658984,
2009-03-16, 01:32:04,VALID,1000.39,VALID,0,VALID,89.6862,VALID,0,VALID,23.9762,VALID,353,VALID,0.841797,
2009-03-16, 01:33:04,VALID,1000.4,VALID,0,VALID,89.6251,VALID,0,VALID,23.9762,VALID,343,VALID,0.80625,
2009-03-16, 01:34:04,VALID,1000.35,VALID,0,VALID,89.7549,VALID,0,VALID,23.9957,VALID,1,VALID,0.917188,
2009-03-16, 01:35:04,VALID,1000.33,VALID,0,VALID,89.5717,VALID,0,VALID,23.9762,VALID,6,VALID,0.895312,
2009-03-16, 01:36:04,VALID,1000.32,VALID,0,VALID,89.7854,VALID,0,VALID,23.9762,VALID,33,VALID,0.89375,
2009-03-16, 01:37:04,VALID,1000.28,VALID,0,VALID,89.8922,VALID,0,VALID,23.9762,VALID,25,VALID,0.748047,
2009-03-16, 01:38:04,VALID,1000.25,VALID,0,VALID,90.0295,VALID,0,VALID,23.9354,VALID,32,VALID,0.835938,
2009-03-16, 01:39:04,VALID,1000.21,VALID,0,VALID,89.8464,VALID,0,VALID,23.9354,VALID,3,VALID,0.540625,
2009-03-16, 01:40:04,VALID,1000.22,VALID,0,VALID,89.9609,VALID,0,VALID,23.9372,VALID,50,VALID,0.790234,
2009-03-16, 01:41:04,VALID,1000.19,VALID,0,VALID,90.0295,VALID,0,VALID,23.9177,VALID,50,VALID,0.662109,
2009-03-16, 01:42:04,VALID,1000.16,VALID,0,VALID,90.1592,VALID,0,VALID,23.9177,VALID,50,VALID,0.357031,
2009-03-16, 01:43:04,VALID,1000.12,VALID,0,VALID,90.2889,VALID,0,VALID,23.8768,VALID,52,VALID,0.892969,
2009-03-16, 01:44:04,VALID,1000.09,VALID,0,VALID,90.5483,VALID,0,VALID,23.8982,VALID,78,VALID,0.407422,
2009-03-16, 01:45:04,VALID,1000.11,VALID,0,VALID,90.6094,VALID,0,VALID,23.8573,VALID,79,VALID,0.313672,
2009-03-16, 01:46:04,VALID,1000.08,VALID,0,VALID,90.678,VALID,0,VALID,23.8786,VALID,359,VALID,0.457422,
2009-03-16, 01:47:04,VALID,1000.06,VALID,0,VALID,90.7162,VALID,0,VALID,23.8591,VALID,336,VALID,0.271875,
2009-03-16, 01:48:04,VALID,1000.05,VALID,0,VALID,90.8535,VALID,0,VALID,23.8591,VALID,225,VALID,0.765234,
2009-03-16, 01:49:04,VALID,999.999,VALID,0,VALID,90.9909,VALID,0,VALID,23.8378,VALID,217,VALID,0.628125,
2009-03-16, 01:50:04,VALID,999.946,VALID,0,VALID,91.09,VALID,0,VALID,23.8183,VALID,216,VALID,0.542188,
2009-03-16, 01:51:04,VALID,999.912,VALID,0,VALID,91.0443,VALID,0,VALID,23.7988,VALID,216,VALID,0.410937,
2009-03-16, 01:52:04,VALID,999.896,VALID,0,VALID,91.0671,VALID,0,VALID,23.7988,VALID,216,VALID,0.417188,
2009-03-16, 01:53:04,VALID,999.892,VALID,0,VALID,91.2884,VALID,0,VALID,23.8201,VALID,216,VALID,0.433984,
2009-03-16, 01:54:04,VALID,999.867,VALID,0,VALID,91.3037,VALID,0,VALID,23.8201,VALID,216,VALID,0.505859,
2009-03-16, 01:55:04,VALID,999.849,VALID,0,VALID,91.3494,VALID,0,VALID,23.7988,VALID,190,VALID,0.846484,
2009-03-16, 01:56:04,VALID,999.81,VALID,0,VALID,91.3952,VALID,0,VALID,23.8201,VALID,197,VALID,1.04492,
2009-03-16, 01:57:04,VALID,999.76,VALID,0,VALID,91.2426,VALID,0,VALID,23.8378,VALID,236,VALID,0.762891,
2009-03-16, 01:58:04,VALID,999.763,VALID,0,VALID,91.1816,VALID,0,VALID,23.8591,VALID,186,VALID,0.596875,
2009-03-16, 01:59:04,VALID,999.758,VALID,0,VALID,91.2503,VALID,0,VALID,23.8378,VALID,183,VALID,0.401563,
2009-03-16, 02:00:04,VALID,999.746,VALID,0,VALID,91.2884,VALID,0,VALID,23.8591,VALID,183,VALID,0.323047,
2009-03-16, 02:01:04,VALID,999.762,VALID,0,VALID,91.3952,VALID,0,VALID,23.8591,VALID,220,VALID,0.732813,
2009-03-16, 02:02:04,VALID,999.728,VALID,0,VALID,91.1892,VALID,0,VALID,23.8201,VALID,230,VALID,0.513672,
2009-03-16, 02:03:04,VALID,999.721,VALID,0,VALID,91.1511,VALID,0,VALID,23.8396,VALID,229,VALID,0.128906,
2009-03-16, 02:04:04,VALID,999.735,VALID,0,VALID,91.2655,VALID,0,VALID,23.8183,VALID,229,VALID,0.0179687,
2009-03-16, 02:05:04,VALID,999.707,VALID,0.5,VALID,90.884,VALID,0,VALID,23.8201,VALID,229,VALID,0.188281,
2009-03-16, 02:06:04,VALID,999.71,VALID,0,VALID,90.8154,VALID,0,VALID,23.7793,VALID,229,VALID,0.151953,
2009-03-16, 02:07:04,VALID,999.71,VALID,0,VALID,90.7772,VALID,0,VALID,23.8006,VALID,229,VALID,0.0804688,
2009-03-16, 02:08:04,VALID,999.717,VALID,0,VALID,90.7009,VALID,0,VALID,23.8201,VALID,229,VALID,0.190625,
2009-03-16, 02:09:04,VALID,999.716,VALID,0,VALID,90.7314,VALID,0,VALID,23.8006,VALID,110,VALID,0.580078,
2009-03-16, 02:10:04,VALID,999.722,VALID,0,VALID,90.6246,VALID,0,VALID,23.8201,VALID,70,VALID,0.652344,
2009-03-16, 02:11:04,VALID,999.687,VALID,0,VALID,90.7238,VALID,0,VALID,23.8006,VALID,56,VALID,0.664844,
2009-03-16, 02:12:04,VALID,999.689,VALID,0,VALID,90.6475,VALID,0,VALID,23.8201,VALID,57,VALID,1.11445,
2009-03-16, 02:13:04,VALID,999.706,VALID,0,VALID,90.884,VALID,0,VALID,23.7988,VALID,59,VALID,1.44805,
2009-03-16, 02:14:04,VALID,999.695,VALID,0,VALID,91.0519,VALID,0,VALID,23.8201,VALID,53,VALID,0.972266,
2009-03-16, 02:15:04,VALID,999.678,VALID,0,VALID,91.38,VALID,0,VALID,23.8006,VALID,63,VALID,1.40977,
2009-03-16, 02:16:04,VALID,999.661,VALID,0,VALID,91.6851,VALID,0,VALID,23.7793,VALID,54,VALID,1.16367,
2009-03-16, 02:17:04,VALID,999.665,VALID,0,VALID,91.9293,VALID,0,VALID,23.8006,VALID,52,VALID,0.944922,
2009-03-16, 02:18:04,VALID,999.669,VALID,0,VALID,92.1429,VALID,0,VALID,23.7616,VALID,60,VALID,0.834766,
2009-03-16, 02:19:04,VALID,999.619,VALID,0,VALID,92.2879,VALID,0,VALID,23.742,VALID,57,VALID,1.12539,
2009-03-16, 02:20:04,VALID,999.625,VALID,0,VALID,92.4786,VALID,0,VALID,23.703,VALID,60,VALID,1.24063,
2009-03-16, 02:21:04,VALID,999.593,VALID,0,VALID,92.6312,VALID,0,VALID,23.664,VALID,68,VALID,1.13125,
2009-03-16, 02:22:04,VALID,999.595,VALID,0,VALID,92.8296,VALID,0,VALID,23.625,VALID,66,VALID,1.10742,
2009-03-16, 02:23:04,VALID,999.541,VALID,0,VALID,92.9135,VALID,0,VALID,23.6054,VALID,65,VALID,1.23633,
2009-03-16, 02:24:04,VALID,999.511,VALID,0,VALID,93.0814,VALID,0,VALID,23.5859,VALID,69,VALID,1.23398,
2009-03-16, 02:25:04,VALID,999.485,VALID,0,VALID,93.2187,VALID,0,VALID,23.5451,VALID,75,VALID,1.19453,
2009-03-16, 02:26:04,VALID,999.479,VALID,0,VALID,93.3179,VALID,0,VALID,23.5469,VALID,77,VALID,1.03125,
2009-03-16, 02:27:04,VALID,999.474,VALID,0,VALID,93.3942,VALID,0,VALID,23.5274,VALID,82,VALID,1.22344,
2009-03-16, 02:28:04,VALID,999.467,VALID,0,VALID,93.356,VALID,0,VALID,23.5079,VALID,85,VALID,1.63164,
2009-03-16, 02:29:04,VALID,999.421,VALID,0,VALID,93.5849,VALID,0,VALID,23.5079,VALID,89,VALID,1.37656,
2009-03-16, 02:30:04,VALID,999.439,VALID,0,VALID,93.6002,VALID,0,VALID,23.4866,VALID,88,VALID,1.16641,
2009-03-16, 02:31:04,VALID,999.419,VALID,0,VALID,93.5468,VALID,0,VALID,23.4884,VALID,94,VALID,1.19922,
2009-03-16, 02:32:04,VALID,999.412,VALID,0,VALID,93.6383,VALID,0,VALID,23.4884,VALID,87,VALID,1.16094,
2009-03-16, 02:33:04,VALID,999.411,VALID,0,VALID,93.707,VALID,0,VALID,23.4688,VALID,97,VALID,1.13789,
2009-03-16, 02:34:04,VALID,999.429,VALID,0,VALID,93.6536,VALID,0,VALID,23.4688,VALID,109,VALID,1.26055,
2009-03-16, 02:35:04,VALID,999.435,VALID,0,VALID,93.6994,VALID,0,VALID,23.4688,VALID,93,VALID,1.14219,
2009-03-16, 02:36:04,VALID,999.43,VALID,0,VALID,93.707,VALID,0,VALID,23.4688,VALID,63,VALID,0.541797,
2009-03-16, 02:37:04,VALID,999.447,VALID,0,VALID,93.707,VALID,0,VALID,23.4688,VALID,45,VALID,0.473828,
2009-03-16, 02:38:04,VALID,999.453,VALID,0,VALID,93.6994,VALID,0,VALID,23.4493,VALID,71,VALID,0.246094,
2009-03-16, 02:39:04,VALID,999.461,VALID,0,VALID,93.7299,VALID,0,VALID,23.4298,VALID,71,VALID,0.645312,
2009-03-16, 02:40:04,VALID,999.423,VALID,0,VALID,93.6765,VALID,0,VALID,23.4298,VALID,70,VALID,0.944922,
2009-03-16, 02:41:04,VALID,999.393,VALID,0,VALID,93.7757,VALID,0,VALID,23.4298,VALID,77,VALID,0.985547,
2009-03-16, 02:42:04,VALID,999.406,VALID,0,VALID,93.8138,VALID,0,VALID,23.4103,VALID,90,VALID,1.175,
2009-03-16, 02:43:04,VALID,999.443,VALID,0,VALID,93.7757,VALID,0,VALID,23.4298,VALID,85,VALID,0.725,
2009-03-16, 02:44:04,VALID,999.432,VALID,0,VALID,93.7375,VALID,0,VALID,23.4103,VALID,60,VALID,0.344141,
2009-03-16, 02:45:04,VALID,999.414,VALID,0,VALID,93.6994,VALID,0,VALID,23.4103,VALID,59,VALID,0.313281,
2009-03-16, 02:46:04,VALID,999.398,VALID,0,VALID,93.7451,VALID,0,VALID,23.3908,VALID,73,VALID,0.461328,
2009-03-16, 02:47:04,VALID,999.376,VALID,0,VALID,93.7375,VALID,0,VALID,23.3908,VALID,80,VALID,0.528906,
2009-03-16, 02:48:04,VALID,999.359,VALID,0,VALID,93.7528,VALID,0,VALID,23.3695,VALID,95,VALID,0.684766,
2009-03-16, 02:49:04,VALID,999.368,VALID,0,VALID,93.768,VALID,0,VALID,23.3713,VALID,86,VALID,0.461719,
2009-03-16, 02:50:04,VALID,999.354,VALID,0,VALID,93.7909,VALID,0,VALID,23.3713,VALID,86,VALID,0.278125,
2009-03-16, 02:51:04,VALID,999.325,VALID,0,VALID,93.7833,VALID,0,VALID,23.3713,VALID,86,VALID,0.275,
2009-03-16, 02:52:04,VALID,999.334,VALID,0,VALID,93.7985,VALID,0,VALID,23.3713,VALID,86,VALID,0.295703,
2009-03-16, 02:53:04,VALID,999.292,VALID,0,VALID,93.7528,VALID,0,VALID,23.3713,VALID,86,VALID,0.204297,
2009-03-16, 02:54:04,VALID,999.281,VALID,0,VALID,93.7451,VALID,0,VALID,23.3518,VALID,86,VALID,0.0199219,
2009-03-16, 02:55:04,VALID,999.269,VALID,0,VALID,93.7299,VALID,0,VALID,23.3323,VALID,86,VALID,0.0175781,
2009-03-16, 02:56:04,VALID,999.242,VALID,0,VALID,93.8443,VALID,0,VALID,23.3305,VALID,111,VALID,0.485547,
2009-03-16, 02:57:04,VALID,999.207,VALID,0,VALID,93.7528,VALID,0,VALID,23.3518,VALID,106,VALID,0.798828,
2009-03-16, 02:58:04,VALID,999.179,VALID,0,VALID,93.6612,VALID,0,VALID,23.3518,VALID,95,VALID,0.83125,
2009-03-16, 02:59:04,VALID,999.163,VALID,0,VALID,93.5239,VALID,0,VALID,23.3713,VALID,93,VALID,0.928125,
2009-03-16, 03:00:04,VALID,999.141,VALID,0,VALID,93.4705,VALID,0,VALID,23.3908,VALID,82,VALID,0.878516,
2009-03-16, 03:01:04,VALID,999.19,VALID,0,VALID,93.4247,VALID,0,VALID,23.3908,VALID,73,VALID,0.747266,
2009-03-16, 03:02:04,VALID,999.128,VALID,0,VALID,93.3942,VALID,0,VALID,23.3908,VALID,51,VALID,0.823047,
2009-03-16, 03:03:04,VALID,999.111,VALID,0,VALID,93.44,VALID,0,VALID,23.3908,VALID,46,VALID,0.94375,
2009-03-16, 03:04:04,VALID,999.13,VALID,0,VALID,93.4552,VALID,0,VALID,23.3695,VALID,50,VALID,1.06953,
2009-03-16, 03:05:04,VALID,999.096,VALID,0,VALID,93.5086,VALID,0,VALID,23.3695,VALID,46,VALID,0.890234,
2009-03-16, 03:06:04,VALID,999.087,VALID,0,VALID,93.5086,VALID,0,VALID,23.3713,VALID,47,VALID,0.752734,
2009-03-16, 03:07:04,VALID,999.068,VALID,0,VALID,93.4476,VALID,0,VALID,23.3713,VALID,45,VALID,0.676172,
2009-03-16, 03:08:04,VALID,999.059,VALID,0,VALID,93.4705,VALID,0,VALID,23.3305,VALID,45,VALID,0.663672,
2009-03-16, 03:09:04,VALID,999.029,VALID,0,VALID,93.4705,VALID,0,VALID,23.3518,VALID,36,VALID,0.425,
2009-03-16, 03:10:04,VALID,999.011,VALID,0,VALID,93.5544,VALID,0,VALID,23.3323,VALID,36,VALID,0.435156,
2009-03-16, 03:11:04,VALID,999.009,VALID,0,VALID,93.6536,VALID,0,VALID,23.3518,VALID,36,VALID,0.314453,
2009-03-16, 03:12:04,VALID,998.965,VALID,0,VALID,93.7146,VALID,0,VALID,23.3323,VALID,36,VALID,0.252734,
2009-03-16, 03:13:04,VALID,998.953,VALID,0,VALID,93.7528,VALID,0,VALID,23.3323,VALID,36,VALID,0.255859,
2009-03-16, 03:14:04,VALID,998.919,VALID,0,VALID,93.7909,VALID,0,VALID,23.3127,VALID,36,VALID,0.184766,
2009-03-16, 03:15:04,VALID,998.92,VALID,0,VALID,93.8062,VALID,0,VALID,23.311,VALID,36,VALID,0.155469,
2009-03-16, 03:16:04,VALID,998.908,VALID,0,VALID,93.8062,VALID,0,VALID,23.3323,VALID,36,VALID,0.409766,
2009-03-16, 03:17:04,VALID,998.901,VALID,0,VALID,93.7528,VALID,0,VALID,23.3127,VALID,56,VALID,0.740625,
2009-03-16, 03:18:04,VALID,998.895,VALID,0,VALID,93.8367,VALID,0,VALID,23.3127,VALID,49,VALID,0.830078,
2009-03-16, 03:19:04,VALID,998.901,VALID,0,VALID,93.8977,VALID,0,VALID,23.2719,VALID,48,VALID,0.722656,
2009-03-16, 03:20:04,VALID,998.936,VALID,0,VALID,93.9511,VALID,0,VALID,23.2932,VALID,48,VALID,0.558984,
2009-03-16, 03:21:04,VALID,998.939,VALID,0,VALID,94.0122,VALID,0,VALID,23.2932,VALID,50,VALID,0.828906,
2009-03-16, 03:22:04,VALID,998.946,VALID,0,VALID,94.0885,VALID,0,VALID,23.2719,VALID,52,VALID,0.891797,
2009-03-16, 03:23:04,VALID,998.939,VALID,0,VALID,94.1114,VALID,0,VALID,23.2932,VALID,52,VALID,0.813672,
2009-03-16, 03:24:04,VALID,998.968,VALID,0,VALID,94.1495,VALID,0,VALID,23.2719,VALID,51,VALID,0.717969,
2009-03-16, 03:25:04,VALID,998.969,VALID,0,VALID,94.2029,VALID,0,VALID,23.2719,VALID,45,VALID,0.813672,
2009-03-16, 03:26:04,VALID,998.932,VALID,0,VALID,94.18,VALID,0,VALID,23.2915,VALID,45,VALID,0.845312,
2009-03-16, 03:27:04,VALID,998.954,VALID,0,VALID,94.2258,VALID,0,VALID,23.2932,VALID,45,VALID,0.719922,
2009-03-16, 03:28:04,VALID,998.955,VALID,0,VALID,94.2945,VALID,0,VALID,23.2932,VALID,56,VALID,0.8125,
2009-03-16, 03:29:04,VALID,998.994,VALID,0,VALID,94.2945,VALID,0,VALID,23.2737,VALID,69,VALID,0.748047,
2009-03-16, 03:30:04,VALID,998.997,VALID,0,VALID,94.2792,VALID,0,VALID,23.2737,VALID,62,VALID,0.912109,
2009-03-16, 03:31:04,VALID,999.011,VALID,0,VALID,94.2716,VALID,0,VALID,23.2542,VALID,61,VALID,0.800781,
2009-03-16, 03:32:04,VALID,999.004,VALID,0,VALID,94.2945,VALID,0,VALID,23.2542,VALID,61,VALID,0.814062,
2009-03-16, 03:33:04,VALID,999.027,VALID,0,VALID,94.2792,VALID,0,VALID,23.256,VALID,61,VALID,0.538281,
2009-03-16, 03:34:04,VALID,999.04,VALID,0,VALID,94.2868,VALID,0,VALID,23.2134,VALID,61,VALID,0.507422,
2009-03-16, 03:35:04,VALID,999.029,VALID,0,VALID,94.3021,VALID,0,VALID,23.2347,VALID,65,VALID,0.372266,
2009-03-16, 03:36:04,VALID,999.06,VALID,0,VALID,94.2945,VALID,0,VALID,23.2152,VALID,68,VALID,0.198828,
2009-03-16, 03:37:04,VALID,999.05,VALID,0,VALID,94.325,VALID,0,VALID,23.2152,VALID,68,VALID,0.227734,
2009-03-16, 03:38:04,VALID,999.051,VALID,0,VALID,94.3937,VALID,0,VALID,23.1957,VALID,70,VALID,0.320313,
2009-03-16, 03:39:04,VALID,999.085,VALID,0,VALID,94.4089,VALID,0,VALID,23.1957,VALID,75,VALID,0.242188,
2009-03-16, 03:40:04,VALID,999.062,VALID,0,VALID,94.4318,VALID,0,VALID,23.1957,VALID,75,VALID,0.158203,
2009-03-16, 03:41:04,VALID,999.074,VALID,0,VALID,94.4394,VALID,0,VALID,23.1939,VALID,75,VALID,0,
2009-03-16, 03:42:04,VALID,999.074,VALID,0,VALID,94.4852,VALID,0,VALID,23.1957,VALID,75,VALID,0.3,
2009-03-16, 03:43:04,VALID,999.091,VALID,0,VALID,94.5005,VALID,0,VALID,23.1744,VALID,75,VALID,0.366797,
2009-03-16, 03:44:04,VALID,999.095,VALID,0,VALID,94.5234,VALID,0,VALID,23.2152,VALID,75,VALID,0.365625,
2009-03-16, 03:45:04,VALID,999.105,VALID,0,VALID,94.4928,VALID,0,VALID,23.2152,VALID,75,VALID,0.4875,
2009-03-16, 03:46:04,VALID,999.108,VALID,0,VALID,94.4547,VALID,0,VALID,23.1744,VALID,95,VALID,0.522266,